Location: Recife
(8.0585°S, 34.8848°W)
Time: 12:46:35
(UTC-03:00)

A-11 Canister half - All Passes

Search period start: 14 April 2026 00:00
Search period end: 24 April 2026 00:00
Orbit: 1523 x 1684 km, 47.3° (Epoch: 14 April)

Date Brightness Start Highest point End Pass type
(mag) Time Alt. Az. Time Alt. Az. Time Alt. Az.
14 Apr - 08:43:38 10° N 08:51:56 32° NE 09:00:00 10° ESE daylight
14 Apr - 10:47:26 10° WNW 10:56:41 54° SW 11:05:45 10° SSE daylight
14 Apr - 19:25:15 10° SSW 19:33:18 30° SE 19:41:30 10° ENE visible
14 Apr - 21:28:51 10° SW 21:38:22 62° NW 21:48:12 10° NNE visible
15 Apr - 08:22:00 10° N 08:30:05 30° NE 08:37:57 10° ESE daylight
15 Apr - 10:25:28 10° NW 10:34:50 58° SW 10:44:00 10° SSE daylight
15 Apr - 12:39:05 10° SW 12:40:57 11° SW 12:42:49 10° SSW daylight
15 Apr - 19:03:35 10° S 19:11:24 28° SE 19:19:21 10° E visible
15 Apr - 21:06:58 10° SW 21:16:31 67° NW 21:26:22 10° NNE visible
15 Apr - 23:19:45 10° WNW 23:21:40 11° NW 23:23:36 10° NW night (unlit)
16 Apr - 08:00:22 10° N 08:08:13 28° NE 08:15:52 10° ESE daylight
16 Apr - 10:03:31 10° NW 10:12:59 62° SW 10:22:14 10° SSE daylight
16 Apr - 12:15:55 10° WSW 12:18:59 12° SW 12:22:01 10° SSW daylight
16 Apr - 18:41:57 10° S 18:49:29 26° SE 18:57:08 10° E visible
16 Apr - 20:45:06 10° SW 20:54:40 71° NW 21:04:33 10° NNE visible
16 Apr - 22:56:26 10° WNW 22:59:45 12° NW 23:03:06 10° NNW night (unlit)
17 Apr - 07:38:46 10° N 07:46:22 26° NE 07:53:45 10° ESE daylight
17 Apr - 09:41:34 10° NW 09:51:08 67° SW 10:00:28 10° SSE daylight
17 Apr - 11:53:08 10° WSW 11:57:00 13° SW 12:00:53 10° SSW daylight
17 Apr - 18:20:21 10° S 18:27:35 24° SE 18:34:55 10° E visible
17 Apr - 20:23:14 10° SW 20:32:49 76° NW 20:42:43 10° NE visible
17 Apr - 22:33:38 10° WNW 22:37:51 13° NW 22:42:07 10° NNW night (unlit)
18 Apr - 07:17:12 10° N 07:24:30 24° NE 07:31:36 10° E daylight
18 Apr - 09:19:39 10° NW 09:29:17 72° SW 09:38:41 10° SE daylight
18 Apr - 11:30:30 10° WSW 11:35:03 14° SW 11:39:35 10° S daylight
18 Apr - 17:58:45 10° S 18:05:40 22° SE 18:12:40 10° E visible
18 Apr - 20:01:22 10° SW 20:10:58 81° NW 20:20:52 10° NE visible
18 Apr - 22:11:03 10° W 22:15:57 15° NW 22:20:57 10° NNW visible
19 Apr - 06:55:40 10° N 07:02:38 22° NE 07:09:25 10° E daylight
19 Apr - 08:57:44 10° NW 09:07:27 77° SW 09:16:53 10° SE daylight
19 Apr - 11:07:59 10° WSW 11:13:06 15° SW 11:18:11 10° S daylight
19 Apr - 17:37:11 10° S 17:43:45 20° SE 17:50:22 10° E visible
19 Apr - 19:39:32 10° SW 19:49:07 87° NW 19:59:00 10° NE visible
19 Apr - 21:48:35 10° W 21:54:03 16° NW 21:59:39 10° NNW visible
20 Apr - 06:34:10 10° N 06:40:45 20° NE 06:47:11 10° E daylight
20 Apr - 08:35:50 10° NW 08:45:36 82° SW 08:55:05 10° SE daylight
20 Apr - 10:45:32 10° WSW 10:51:09 17° SW 10:56:45 10° S daylight
20 Apr - 17:15:39 10° S 17:21:49 19° SE 17:28:02 10° E daylight
20 Apr - 19:17:43 10° SW 19:27:16 88° SE 19:37:08 10° NE visible
20 Apr - 21:26:12 10° W 21:32:10 18° NW 21:38:16 10° N visible
21 Apr - 06:12:43 10° N 06:18:52 18° NE 06:24:53 10° E daylight
21 Apr - 08:13:56 10° NW 08:23:46 87° SW 08:33:16 10° SE daylight
21 Apr - 10:23:09 10° W 10:29:14 18° SW 10:35:15 10° S daylight
21 Apr - 16:54:09 10° S 16:59:53 17° SE 17:05:40 10° ESE daylight
21 Apr - 18:55:54 10° SW 19:05:26 83° SE 19:15:15 10° NE visible
21 Apr - 21:03:54 10° W 21:10:17 20° NW 21:16:49 10° N visible
22 Apr - 05:51:20 10° NNE 05:56:59 17° NE 06:02:32 10° E daylight
22 Apr - 07:52:04 10° NW 08:01:55 88° NE 08:11:27 10° SE daylight
22 Apr - 10:00:49 10° W 10:07:17 20° SW 10:13:43 10° S daylight
22 Apr - 16:32:41 10° S 16:37:56 16° SE 16:43:14 10° ESE daylight
22 Apr - 18:34:05 10° SW 18:43:34 78° SE 18:53:21 10° NE visible
22 Apr - 20:41:39 10° W 20:48:24 21° NW 20:55:20 10° N visible
23 Apr - 05:30:01 10° NNE 05:35:06 15° NE 05:40:06 10° E daylight
23 Apr - 07:30:12 10° NW 07:40:04 83° NE 07:49:37 10° SE daylight
23 Apr - 09:38:31 10° W 09:45:23 22° SW 09:52:09 10° S daylight
23 Apr - 16:11:16 10° S 16:15:59 15° SE 16:20:44 10° ESE daylight
23 Apr - 18:12:18 10° SW 18:21:44 73° SE 18:31:26 10° NE visible
23 Apr - 20:19:28 10° W 20:26:32 23° NW 20:33:48 10° N visible
